This demonstration page uses our WeatherBlox Daily Observations layout. Learn more.

Hourly Observations for January 1, 2019

Temp ( °F °C ) Dew Point ( °F °C ) Humidity (%) Winds ( mph kmh ) Pressure ( in mb ) Visibility ( mi km ) Precip ( " mm )
12:15 am 00:15 Cloudy 8 -13.1 -4 -20 57 57 NNW 18 30 30.59 1036 10 16.09344 0 0
12:35 am 00:35 Cloudy 8 -13.1 -4 -20.1 56 56 N 21 33 30.59 1036 10 16.09344 0 0
12:55 am 00:55 Cloudy 8 -13.2 -3 -19.4 60 60 NNW 22 35 30.62 1037 10 16.09344 0 0
1:15 am 01:15 Cloudy 8 -13.5 -5 -20.3 57 57 N 21 33 30.62 1037 10 16.09344 0 0
1:35 am 01:35 Cloudy 8 -13.4 -4 -19.8 59 59 NNW 21 33 30.62 1037 10 16.09344 0 0
1:55 am 01:55 Mostly Cloudy 7 -13.7 -4 -20.1 59 59 NNW 24 39 30.62 1037 10 16.09344 0 0
2:15 am 02:15 Cloudy 7 -13.7 -4 -20 59 59 NNW 18 30 30.62 1037 10 16.09344 0 0
2:35 am 02:35 Cloudy 7 -13.8 -5 -20.3 58 58 N 18 30 30.65 1038 10 16.09344 0 0
2:55 am 02:55 Cloudy 7 -13.7 -4 -19.9 60 60 NNW 17 28 30.65 1038 10 16.09344 0 0
3:15 am 03:15 Cloudy 8 -13.5 -3 -19.2 62 62 NNW 22 35 30.65 1038 10 16.09344 0 0
3:35 am 03:35 Cloudy 8 -13.6 -2 -19.1 64 64 N 22 35 30.62 1037 10 16.09344 0 0
3:55 am 03:55 Cloudy 8 -13.6 -2 -19.1 64 64 N 21 33 30.62 1037 10 16.09344 0 0
4:15 am 04:15 Cloudy 8 -13.6 -3 -19.2 63 63 N 21 33 30.65 1038 10 16.09344 0 0
4:35 am 04:35 Cloudy 8 -13.5 -2 -18.8 65 65 NNW 15 24 30.65 1038 10 16.09344 0 0
4:55 am 04:55 Cloudy 8 -13.5 -2 -19 64 64 NNW 18 30 30.65 1038 10 16.09344 0 0
5:15 am 05:15 Cloudy 8 -13.3 -2 -18.7 64 64 NNW 14 22 30.65 1038 10 16.09344 0 0
5:35 am 05:35 Cloudy 8 -13.2 -1 -18.6 64 64 NNW 16 26 30.65 1038 10 16.09344 0 0
5:55 am 05:55 Cloudy 8 -13.2 -2 -18.8 63 63 NNW 16 26 30.62 1037 10 16.09344 0 0
6:15 am 06:15 Cloudy 8 -13.2 -2 -18.9 63 63 NNW 13 20 30.62 1037 10 16.09344 0 0
6:35 am 06:35 Cloudy 8 -13.2 -2 -18.8 63 63 N 15 24 30.65 1038 10 16.09344 0 0
6:55 am 06:55 Cloudy 8 -13.1 -1 -18.6 64 64 N 14 22 30.65 1038 10 16.09344 0 0
7:15 am 07:15 Cloudy 8 -13.1 -1 -18.6 64 64 N 13 20 30.65 1038 10 16.09344 0 0
7:35 am 07:35 Cloudy 9 -13 -1 -18.6 63 63 NNW 13 20 30.65 1038 10 16.09344 0 0
7:55 am 07:55 Cloudy 9 -13 -1 -18.5 64 64 N 13 20 30.65 1038 10 16.09344 0 0
8:15 am 08:15 Cloudy 9 -13 -2 -18.7 63 63 NNW 12 19 30.65 1038 10 16.09344 0 0
8:35 am 08:35 Cloudy 9 -13 -1 -18.6 63 63 NNW 10 17 30.65 1038 10 16.09344 0 0
8:55 am 08:55 Cloudy 9 -13 -1 -18.5 64 64 N 13 20 30.65 1038 10 16.09344 0 0
9:15 am 09:15 Cloudy 9 -12.8 -1 -18.5 63 63 N 12 19 30.62 1037 10 16.09344 0 0
9:35 am 09:35 Cloudy 10 -12.5 -1 -18.4 62 62 NNW 12 19 30.62 1037 10 16.09344 0 0
9:55 am 09:55 Cloudy 10 -12.5 -1 -18.5 61 61 NNW 12 19 30.62 1037 10 16.09344 0 0
10:15 am 10:15 Cloudy 10 -12.2 -1 -18.5 60 60 N 9 15 30.62 1037 10 16.09344 0 0
10:35 am 10:35 Mostly Cloudy 10 -12.1 -2 -18.7 58 58 N 8 13 30.62 1037 10 16.09344 0 0
10:55 am 10:55 Partly Cloudy 10 -12.1 -1 -18.5 59 59 N 8 13 30.62 1037 10 16.09344 0 0
11:15 am 11:15 Partly Cloudy 10 -12.3 -2 -18.9 58 58 N 6 9 30.62 1037 10 16.09344 0 0
11:35 am 11:35 Cloudy 11 -11.8 -2 -18.9 56 56 N 6 9 30.62 1037 10 16.09344 0 0
11:55 am 11:55 Cloudy 11 -11.5 -1 -18.6 56 56 N 7 11 30.62 1037 10 16.09344 0 0
12:15 pm 12:15 Partly Cloudy 11 -11.5 -1 -18.3 57 57 NNW 8 13 30.59 1036 10 16.09344 0 0
12:35 pm 12:35 Sunny 12 -11.1 0 -18 57 57 NNW 8 13 30.59 1036 10 16.09344 0 0
12:55 pm 12:55 Partly Cloudy 12 -10.9 -1 -18.2 55 55 NNW 6 9 30.59 1036 10 16.09344 0 0
1:15 pm 13:15 Mostly Cloudy 13 -10.7 0 -17.9 56 56 NNW 3 6 30.53 1034 10 16.09344 0 0
1:35 pm 13:35 Cloudy 13 -10.7 0 -17.7 57 57 NNW 5 7 30.53 1034 10 16.09344 0 0
1:55 pm 13:55 Cloudy 13 -10.7 0 -17.8 56 56 Calm 30.53 1034 10 16.09344 0 0
2:15 pm 14:15 Cloudy 13 -10.5 0 -17.6 56 56 Calm 30.5 1033 10 16.09344 0 0
2:35 pm 14:35 Cloudy 13 -10.6 0 -17.8 56 56 Calm 30.5 1033 10 16.09344 0 0
2:55 pm 14:55 Cloudy 13 -10.3 0 -17.6 55 55 WNW 3 6 30.5 1033 10 16.09344 0 0
3:15 pm 15:15 Cloudy 14 -10.2 1 -17.1 57 57 Calm 30.48 1032 10 16.09344 0 0
3:35 pm 15:35 Cloudy 14 -10.2 1 -17.2 57 57 Calm 30.48 1032 10 16.09344 0 0
3:55 pm 15:55 Cloudy 14 -10.1 0 -17.8 54 54 Calm 30.48 1032 10 16.09344 0 0
4:15 pm 16:15 Cloudy 14 -10 -1 -18.1 52 52 Calm 30.48 1032 10 16.09344 0 0
4:35 pm 16:35 Cloudy 14 -10 0 -17.8 53 53 Calm 30.48 1032 10 16.09344 0 0
4:55 pm 16:55 Cloudy 14 -9.8 1 -17.5 54 54 Calm 30.48 1032 10 16.09344 0 0
5:15 pm 17:15 Cloudy 14 -10 1 -17.3 56 56 Calm 30.45 1031 10 16.09344 0 0
5:35 pm 17:35 Partly Cloudy 13 -10.3 1 -17.5 56 56 Calm 30.45 1031 10 16.09344 0 0
5:55 pm 17:55 Clear 13 -10.8 1 -17.2 60 60 SSE 3 6 30.45 1031 10 16.09344 0 0
6:15 pm 18:15 Clear 11 -11.5 1 -17.2 63 63 S 3 6 30.45 1031 10 16.09344 0 0
6:35 pm 18:35 Clear 10 -12 1 -17.2 66 66 S 6 9 30.48 1032 10 16.09344 0 0
6:55 pm 18:55 Clear 11 -11.9 2 -16.8 67 67 S 5 7 30.48 1032 10 16.09344 0 0
7:15 pm 19:15 Clear 10 -12 1 -17 67 67 SSW 3 6 30.48 1032 10 16.09344 0 0
7:35 pm 19:35 Clear 10 -12.5 1 -17 69 69 S 3 6 30.48 1032 10 16.09344 0 0
7:55 pm 19:55 Clear 9 -13 1 -17.3 70 70 S 7 11 30.48 1032 10 16.09344 0 0
8:15 pm 20:15 Clear 9 -12.8 1 -17 71 71 SSW 9 15 30.48 1032 10 16.09344 0 0
8:35 pm 20:35 Clear 9 -12.6 1 -17.2 69 69 SSW 7 11 30.48 1032 10 16.09344 0 0
8:55 pm 20:55 Clear 10 -12.2 1 -17.4 66 66 SW 6 9 30.45 1031 10 16.09344 0 0
9:15 pm 21:15 Partly Cloudy 10 -12.5 1 -17.5 67 67 SSW 6 9 30.45 1031 10 16.09344 0 0
9:35 pm 21:35 Clear 8 -13.1 0 -17.9 68 68 S 6 9 30.45 1031 10 16.09344 0 0
9:55 pm 21:55 Clear 8 -13.6 -1 -18.1 69 69 S 8 13 30.42 1030 10 16.09344 0 0
10:15 pm 22:15 Clear 9 -12.7 0 -17.6 67 67 NW 3 6 30.42 1030 10 16.09344 0 0
10:35 pm 22:35 Clear 10 -12.3 0 -17.9 63 63 SSW 8 13 30.42 1030 10 16.09344 0 0
10:55 pm 22:55 Clear 10 -12.5 0 -18 64 64 Calm 30.42 1030 10 16.09344 0 0
11:15 pm 23:15 Clear 10 -12.4 -1 -18.1 63 63 SW 9 15 30.42 1030 10 16.09344 0 0
11:35 pm 23:35 Clear 10 -12.5 -1 -18.1 63 63 SW 8 13 30.39 1029 10 16.09344 0 0
11:55 pm 23:55 Clear 10 -12.2 0 -18 62 62 SW 9 15 30.36 1028 10 16.09344 0 0

Powered by AerisWeather